Flag for U.S.A. Weather past 2 weeks in Manhattan, Kansas, U.S.A.

Now
69 °F

Sunny.


Feels Like: 69 °F
Forecast: 61 / 85 °F
Wind: No wind

Location: Manhattan Municipal Airport

Current Time: Jul 4, 2015 at 9:45:00 AM

Latest Report: Jul 4, 2015 at 8:52 AM


Visibility: 10 mi

Pressure: 29.99 "Hg

Humidity: 73%

Dew point: 60 °F

Location of ManhattanLocation

Historic Weather in Manhattan — Graph

°F

Manhattan temperature yesterday

Maximum temperature yesterday: 82 °F (at 5:52 PM)
Minimum temperature yesterday: 64 °F (at 11:52 PM)
Average temperature yesterday: 73 °F

Past Weeks' High & Low Weather Summary

 TemperatureHumidityPressure
High99 °F (Jun 20, 3:52 PM)100% (Jun 27, 4:52 AM)30.11 "Hg (Jun 27, 4:52 AM)
Low58 °F (Jul 4, 5:52 AM)25% (Jun 30, 1:52 PM)29.69 "Hg (Jun 20, 1:52 PM)
Average79 °F66%29.89 "Hg
* Reported Jun 19 7:52 AM — Jul 4 7:52 AM, Manhattan, Weather by CustomWeather, © 2015

Note: Actual official high and low records may vary slightly from our data, if they occured in-between our weather recording intervals... More about our weather records

Advertising

Manhattan weather history for previous 24 hours

 ConditionsComfort  
Time TempWeatherWind HumidityBarometerVisibility
7:52 AM
Sat, Jul 4
64 °FSunny.No wind90%29.98 "Hg10 mi
6:52 AM59 °FFog.No wind96%29.98 "Hg4 mi
5:52 AM58 °FFog.No wind97%29.97 "Hg5 mi
4:52 AM59 °FFog.No wind96%29.97 "Hg6 mi
3:52 AM59 °FFog.No wind96%29.96 "Hg4 mi
2:52 AM60 °FClear.No wind96%29.96 "Hg8 mi
1:52 AM61 °FClear.No wind93%29.98 "Hg8 mi
12:52 AM63 °FClear.No wind90%29.98 "Hg10 mi
11:52 PM
Fri, Jul 3
64 °FClear.No wind90%29.98 "Hg10 mi
10:52 PM66 °FClear.No wind84%29.96 "Hg9 mi
9:52 PM68 °FSunny.No wind78%29.94 "Hg10 mi
8:52 PM73 °FSunny.3 mph64%29.92 "Hg10 mi
7:52 PM78 °FSunny.9 mph52%29.91 "Hg10 mi
6:52 PM80 °FSunny.10 mph52%29.91 "Hg10 mi
5:52 PM82 °FPartly sunny.7 mph51%29.92 "Hg10 mi
4:52 PM81 °FScattered clouds.10 mph56%29.92 "Hg10 mi
3:52 PM80 °FPassing clouds.6 mph58%29.93 "Hg10 mi
2:52 PM81 °FPartly sunny.8 mph58%29.94 "Hg10 mi
1:52 PM78 °FOvercast.10 mph64%29.96 "Hg10 mi
12:52 PM78 °FPartly sunny.8 mph64%29.97 "Hg10 mi
11:52 AM74 °FOvercast.8 mph76%29.97 "Hg10 mi
10:52 AM70 °FOvercast.7 mph84%29.97 "Hg10 mi
10:02 AM68 °FMostly cloudy.7 mph90%29.99 "Hg10 mi
9:52 AM67 °FOvercast.6 mph93%29.97 "Hg10 mi
Weather by CustomWeather, © 2015

See weather overviewHow to use our weather pages